sat.trackr.live / text

‹ back to catalog

STARLINK-6220

NORAD 56482 · 2023-064AL

PAYLOAD ACTIVE UNKNOWN

§ Identity

Operator
Country
US
Launch date
2023-05-10
Launch site
AFWTR
Launch vehicle
Mass (kg)
RCS (m²)

Purposes: comms

External: N2YO · Heavens-Above · Gunter

§ Orbital elements

Epoch: 2026-05-24T19:41:24.489312Z

Period
96.11 min
Inclination
69.9985°
Eccentricity
0.0003240
Mean motion
14.98352493 rev/d
Perigee alt
569.7 km
Apogee alt
574.2 km
Semi-major
6,950.1 km
B*
-2.9843e-4
RAAN
292.4706°
Arg perigee
265.6682°
Mean anomaly
94.4107°
Rev number
16,714

§ Raw data

STARLINK-62201 56482U 23064AL  26144.82042233 -.00003654  00000+0 -29843-3 0  99992 56482  69.9985 292.4706 0003240 265.6682  94.4107 14.98352493167149

JSON: /api/v1/satellites/56482 · /tle

For live sub-satellite position, see the globe view (requires WebGL).

§ Visibility from observer

Set your observer location to see the next 7 days of passes ≥ 10°. The values pass through the URL so the page stays shareable.

No JS? Fill the form by hand. The geolocation button needs JavaScript.